Location: Ku?niki
(51.4449°N, 17.8974°E)
Time: 13:37:14
(UTC+00:00)

XW-2A - Visible Passes

Search period start: 02 July 2022 00:00
Search period end: 12 July 2022 00:00
Orbit: 397 x 412 km, 97.2° (Epoch: 02 July)

Date Brightness Start Highest point End Pass type
(mag) Time Alt. Az. Time Alt. Az. Time Alt. Az.
02 Jul ? 20:18:41 10° SSW 20:21:18 25° W 20:23:57 10° NW visible
04 Jul ? 20:12:57 10° SSW 20:15:43 29° W 20:18:29 10° NNW visible
06 Jul ? 20:07:10 10° SSW 20:10:02 34° W 20:12:55 10° NNW visible
07 Jul ? 20:52:25 10° WSW 20:53:24 11° W 20:54:23 10° WNW visible
08 Jul ? 20:01:19 10° S 20:04:16 40° W 20:07:14 10° NNW visible
09 Jul ? 20:46:00 10° WSW 20:47:33 13° W 20:49:05 10° WNW visible
10 Jul ? 19:55:24 10° S 19:58:24 48° W 20:01:27 10° NNW visible
11 Jul ? 20:39:43 10° SW 20:41:37 15° W 20:43:32 10° NW visible
